Weather History for Auburn-Lewiston, ME

Change the Weather History Date:

Wednesday, January 15, 2014

  Actual Average Record
Temperature  
Mean Temperature 34 °F -  
Max Temperature 42 °F 24 °F 44 °F (1999)
Min Temperature 26 °F 7 °F -13 °F (2003)
Degree Days  
Heating Degree Days 31    
Moisture  
Dew Point 31 °F    
Average Humidity 85    
Maximum Humidity 100    
Minimum Humidity 61    
Precipitation  
Precipitation 0.01 in - - ()
Sea Level Pressure  
Sea Level Pressure 29.89 in    
Wind  
Wind Speed 4 mph (South)    
Max Wind Speed 12 mph    
Max Gust Speed -    
Visibility 7 miles    
Events      
Averages and records for this station are not official NWS values.
T = Trace of Precipitation, MM = Missing Value Source: NWS Daily Summary

Daily Weather History Graph

Daily Weather History Graph

Search for Another Location

Airport:

Trip Planner

Search our weather history database for the weather conditions in past years. The results will help you decide how hot, cold, wet, or windy it might be!

Date:

Astronomy

Jan. 15, 2014 Rise Set
Actual Time 7:12 AM EST 4:28 PM EST
Civil Twilight 6:40 AM EST 5:00 PM EST
Nautical Twilight 6:04 AM EST 5:36 PM EST
Astronomical Twilight 5:30 AM EST 6:11 PM EST
Moon 4:25 PM EST (1/15) 6:24 AM EST (1/15)
Length of Visible Light 10h 20m
Length of Day
9h 16m
Full, 100% of the Moon is Illuminated
Jan 15
Full
Jan 15
Full
Jan 24
Last Quarter
Jan 30
New
Feb 6
First Quarter

Hourly Weather History & Observations

Time (EST) Temp. Windchill Dew Point Humidity Pressure Visibility Wind Dir Wind Speed Gust Speed Precip Events Conditions
12:15 AM 39.2 °F 34.2 °F 35.6 °F 87% 29.68 in 10.0 mi WNW 6.9 mph - 0.01 in   Overcast
12:35 AM 39.2 °F 34.2 °F 35.6 °F 87% 29.69 in 10.0 mi WNW 6.9 mph - 0.01 in   Overcast
12:55 AM 39.2 °F 34.2 °F 35.6 °F 87% 29.70 in 10.0 mi WNW 6.9 mph - 0.01 in   Overcast
1:15 AM 39.2 °F 37.0 °F 35.6 °F 87% 29.71 in 10.0 mi WNW 3.5 mph - N/A   Overcast
1:35 AM 39.2 °F 37.0 °F 35.6 °F 87% 29.73 in 10.0 mi NW 3.5 mph - N/A   Overcast
1:55 AM 37.4 °F - 35.6 °F 93% 29.73 in 10.0 mi Calm Calm - N/A   Mostly Cloudy
2:15 AM 37.4 °F - 35.6 °F 93% 29.75 in 10.0 mi Calm Calm - N/A   Scattered Clouds
2:35 AM 37.4 °F 34.9 °F 35.6 °F 93% 29.75 in 10.0 mi NNW 3.5 mph - N/A   Clear
2:55 AM 35.6 °F - 33.8 °F 93% 29.76 in 10.0 mi Calm Calm - N/A   Clear
3:15 AM 37.4 °F 34.9 °F 35.6 °F 93% 29.77 in 10.0 mi South 3.5 mph - N/A   Clear
3:35 AM 35.6 °F 32.8 °F 32.0 °F 87% 29.79 in 10.0 mi SSW 3.5 mph - N/A   Clear
3:55 AM 33.8 °F 28.6 °F 32.0 °F 93% 29.80 in 10.0 mi West 5.8 mph - N/A   Clear
4:15 AM 33.8 °F - 30.2 °F 87% 29.81 in 10.0 mi Calm Calm - N/A   Scattered Clouds
4:35 AM 35.6 °F - 32.0 °F 87% 29.82 in 10.0 mi Calm Calm - N/A   Mostly Cloudy
4:55 AM 35.6 °F - 30.2 °F 81% 29.83 in 10.0 mi Calm Calm - N/A   Overcast
5:15 AM 30.2 °F - 24.8 °F 80% 29.84 in 3.0 mi Calm Calm - N/A   Scattered Clouds
5:35 AM 32.0 °F - 30.2 °F 93% 29.85 in 3.0 mi Calm Calm - N/A   Clear
5:55 AM 30.2 °F 26.7 °F 28.4 °F 93% 29.87 in 9.0 mi South 3.5 mph - N/A   Clear
6:15 AM 30.2 °F 25.4 °F 28.4 °F 93% 29.88 in 10.0 mi SSE 4.6 mph - N/A   Partly Cloudy
6:35 AM 28.4 °F - 26.6 °F 93% 29.89 in 0.8 mi Calm Calm - N/A   Mostly Cloudy
6:55 AM 30.2 °F - 26.6 °F 86% 29.90 in 2.0 mi Calm Calm - N/A   Scattered Clouds
7:15 AM 28.4 °F - 26.6 °F 93% 29.91 in 0.2 mi Calm Calm - N/A   Mostly Cloudy
7:35 AM 28.4 °F - 26.6 °F 93% 29.93 in 3.0 mi Calm Calm - N/A   Clear
7:55 AM 28.4 °F 23.3 °F 26.6 °F 93% 29.95 in 6.0 mi SSE 4.6 mph - N/A   Scattered Clouds
8:15 AM 30.2 °F - 26.6 °F 86% 29.96 in 1.5 mi Calm Calm - N/A   Overcast
8:35 AM 28.4 °F - 26.6 °F 93% 29.96 in 3.0 mi Calm Calm - N/A   Overcast
8:55 AM 30.2 °F - 28.4 °F 93% 29.97 in 5.0 mi Calm Calm - N/A   Overcast
9:15 AM 30.2 °F - 30.2 °F 100% 29.98 in 5.0 mi Calm Calm - N/A   Mostly Cloudy
9:35 AM 35.6 °F 32.8 °F 33.8 °F 93% 29.98 in 5.0 mi SSE 3.5 mph - N/A   Partly Cloudy
9:55 AM 35.6 °F 29.2 °F 35.6 °F 100% 29.98 in 10.0 mi South 8.1 mph - N/A   Clear
10:15 AM 37.4 °F 33.8 °F 33.8 °F 87% 29.99 in 10.0 mi South 4.6 mph - N/A   Clear
10:35 AM 37.4 °F 34.9 °F 35.6 °F 93% 29.98 in 10.0 mi SSW 3.5 mph - N/A   Clear
10:55 AM 39.2 °F 37.0 °F 33.8 °F 81% 29.97 in 10.0 mi SSW 3.5 mph - N/A   Clear
11:15 AM 39.2 °F 34.2 °F 33.8 °F 81% 29.97 in 10.0 mi South 6.9 mph - N/A   Clear
11:35 AM 41.0 °F 36.4 °F 33.8 °F 76% 29.95 in 10.0 mi SSW 6.9 mph - N/A   Clear
11:55 AM 42.8 °F 37.5 °F 32.0 °F 66% 29.95 in 10.0 mi SSW 9.2 mph - N/A   Partly Cloudy
12:15 PM 42.8 °F 37.5 °F 30.2 °F 61% 29.94 in 10.0 mi SSW 9.2 mph - N/A   Partly Cloudy
12:35 PM 42.8 °F 37.0 °F 30.2 °F 61% 29.94 in 10.0 mi SSW 10.4 mph - N/A   Clear
12:55 PM 42.8 °F 37.5 °F 32.0 °F 66% 29.94 in 10.0 mi SSW 9.2 mph - N/A   Clear
1:15 PM 42.8 °F 36.6 °F 32.0 °F 66% 29.94 in 10.0 mi SSW 11.5 mph - N/A   Partly Cloudy
1:35 PM 42.8 °F 39.3 °F 33.8 °F 70% 29.94 in 10.0 mi South 5.8 mph - N/A   Mostly Cloudy
1:55 PM 42.8 °F 37.0 °F 32.0 °F 66% 29.94 in 10.0 mi SW 10.4 mph - N/A   Mostly Cloudy
2:15 PM 42.8 °F 38.0 °F 30.2 °F 61% 29.94 in 10.0 mi SSW 8.1 mph - N/A   Partly Cloudy
2:35 PM 42.8 °F 38.0 °F 30.2 °F 61% 29.94 in 10.0 mi South 8.1 mph - N/A   Scattered Clouds
2:55 PM 42.8 °F 38.6 °F 32.0 °F 66% 29.93 in 10.0 mi South 6.9 mph - N/A   Scattered Clouds
3:15 PM 42.8 °F 38.6 °F 32.0 °F 66% 29.93 in 10.0 mi South 6.9 mph - N/A   Partly Cloudy
3:35 PM 41.0 °F 35.8 °F 32.0 °F 70% 29.93 in 10.0 mi SSE 8.1 mph - N/A   Clear
3:55 PM 39.2 °F 34.2 °F 32.0 °F 75% 29.93 in 10.0 mi South 6.9 mph - N/A   Clear
4:15 PM 39.2 °F 34.2 °F 30.2 °F 70% 29.93 in 10.0 mi South 6.9 mph - N/A   Clear
4:35 PM 37.4 °F 32.8 °F 32.0 °F 81% 29.93 in 10.0 mi SSE 5.8 mph - N/A   Clear
4:55 PM 37.4 °F 32.1 °F 33.8 °F 87% 29.93 in 10.0 mi SSE 6.9 mph - N/A   Partly Cloudy
5:15 PM 37.4 °F 32.1 °F 33.8 °F 87% 29.93 in 10.0 mi SSE 6.9 mph - N/A   Scattered Clouds
5:35 PM 35.6 °F 29.9 °F 33.8 °F 93% 29.93 in 10.0 mi SSE 6.9 mph - N/A   Partly Cloudy
5:55 PM 35.6 °F 30.7 °F 33.8 °F 93% 29.94 in 9.0 mi SSE 5.8 mph - N/A   Clear
6:15 PM 35.6 °F 32.8 °F 32.0 °F 87% 29.94 in 7.0 mi SSE 3.5 mph - N/A   Clear
6:35 PM 35.6 °F 31.7 °F 33.8 °F 93% 29.94 in 5.0 mi South 4.6 mph - N/A   Clear
6:55 PM 33.8 °F - 28.4 °F 81% 29.94 in 1.0 mi Calm Calm - N/A   Clear
7:15 PM 33.8 °F - 30.2 °F 87% 29.94 in 0.2 mi Calm Calm - N/A   Overcast
7:35 PM 32.0 °F - 30.2 °F 93% 29.94 in 0.2 mi Calm Calm - N/A   Overcast
7:55 PM 33.8 °F - 30.2 °F 87% 29.94 in 2.0 mi Calm Calm - N/A   Scattered Clouds
8:15 PM 32.0 °F - 30.2 °F 93% 29.94 in 2.0 mi Calm Calm - N/A   Clear
8:35 PM 30.2 °F - 30.2 °F 100% 29.93 in 1.8 mi Calm Calm - N/A   Scattered Clouds
8:55 PM 28.4 °F - 24.8 °F 86% 29.93 in 0.5 mi Calm Calm - N/A   Overcast
9:15 PM 28.4 °F - 26.6 °F 93% 29.91 in 0.8 mi Calm Calm - N/A   Overcast
9:35 PM 28.4 °F 24.6 °F 26.6 °F 93% 29.91 in 0.5 mi NNW 3.5 mph - N/A   Mostly Cloudy
9:55 PM 28.4 °F - 26.6 °F 93% 29.90 in 0.5 mi Calm Calm - N/A   Overcast
10:15 PM 28.4 °F - 24.8 °F 86% 29.89 in 0.2 mi Calm Calm - N/A   Overcast
10:35 PM 28.4 °F - 26.6 °F 93% 29.89 in 0.2 mi Calm Calm - N/A   Overcast
10:55 PM 28.4 °F - 26.6 °F 93% 29.89 in 0.2 mi Calm Calm - N/A   Overcast
11:15 PM 26.6 °F - 26.6 °F 100% 29.89 in 0.2 mi Calm Calm - N/A   Overcast
11:35 PM 26.6 °F - 24.8 °F 93% 29.88 in 0.2 mi Calm Calm - N/A   Overcast
11:55 PM 26.6 °F - 24.8 °F 93% 29.87 in 0.5 mi Calm Calm - N/A   Overcast